Regional Weather Roundup
Issued by NWS

Home | Current Version | Previous Version | Graphics & Text | Print | Product List | Glossary Off
Versions: 1 2 3 4 5 6 7 8 9 10 11 12 13 14 15 16 17 18 19 20 21 22 23 24 25 26 27

000
ASUS45 KBOU 010207
RWRCO

WEATHER ROUNDUP FOR COLORADO
NATIONAL WEATHER SERVICE DENVER/BOULDER CO
800 PM MDT WED AUG 31 2016

NOTE: "FAIR" INDICATES FEW OR NO CLOUDS BELOW 12000 FEET WITH NO
SIGNIFICANT WEATHER AND/OR OBSTRUCTIONS TO VISIBILITY.

COZ001>005-013-030-031-010300-
...NORTHWEST COLORADO...

CITY           SKY/WX    TMP DP  RH WIND       PRES   REMARKS
CRAIG          FAIR      68  35  29 CALM      30.17R
HAYDEN         FAIR      77  30  18 NW3       30.20S
MEEKER         FAIR      72  40  31 W5        30.19R
MOUNT WERNER   NOT AVBL
STEAMBOAT SPGS FAIR      74  31  20 CALM      30.23R
WALDEN         FAIR      63  37  39 NE9       30.34S
$$

COZ006>008-011-010300-
...WEST CENTRAL VALLEYS...

CITY           SKY/WX    TMP DP  RH WIND       PRES   REMARKS
GRAND JUNCTION FAIR      85  41  21 W3        30.07R
MONTROSE       FAIR      75  47  36 S3        30.17S
EAGLE          FAIR      75  37  25 S3        30.21S
RIFLE          FAIR      79  40  24 W8        30.12R
DELTA          FAIR      82  45  26 CALM      30.12R
NUCLA          NOT AVBL
$$

COZ017>023-064>068-010300-
...SOUTHWEST COLORADO...

CITY           SKY/WX    TMP DP  RH WIND       PRES   REMARKS
DURANGO        CLOUDY    69  47  45 N6        30.25S
CORTEZ         FAIR      72  53  51 NE5       30.20S
PAGOSA SPRINGS FAIR      59  57  92 CALM      30.36R
TELLURIDE      FAIR      62  47  58 SE3       30.46R
WOLF CREEK PAS FAIR      46  37  71 SW10      30.68R
$$

COZ009-010-012-014-032>034-037-058>063-010300-
...CENTRAL COLORADO...

CITY           SKY/WX    TMP DP  RH WIND       PRES   REMARKS
ASPEN          FAIR      63  44  50 S8        30.30R
BUENA VISTA    MOCLDY    65  47  51 E9        30.39R THUNDER
COPPER MTN     FAIR      55  32  41 NW8       30.66S
BERTHOUD PASS  MOCLDY    41  28  60 E25G33    30.70R
COTTONWOOD PAS FAIR      61  45  55 SE17G25   30.51R THUNDER
GUNNISON       CLOUDY    68  43  40 E7        30.34R
KREMMLING      FAIR      70  32  24 CALM      30.27S
LEADVILLE      MOCLDY    57  40  52 S6        30.49R
MONARCH PASS   FAIR      46  43  87 NE18      30.74F
SALIDA         FAIR      68  48  49 SE18G26   30.41R
SUNLIGHT       FAIR      57  36  44 NE3       30.59R
WILKERSON PASS CLOUDY    50  45  81 E6        30.66R
$$

COZ069>075-010300-
...SAN LUIS VALLEY/SANGRE DE CRISTO MOUNTAINS...

CITY           SKY/WX    TMP DP  RH WIND       PRES   REMARKS
ALAMOSA        FAIR      66  46  48 E17       30.31R
LA VETA PASS   FAIR      50  43  76 MISG      30.54S THUNDER
SAGUACHE       MOCLDY    63  50  63 CALM      30.35R
$$

COZ035-036-038>040-010300-
...NORTHERN COLORADO FRONT RANGE...

CITY           SKY/WX    TMP DP  RH WIND       PRES   REMARKS
DENVER INTL AP FAIR      67  53  61 SE8       30.24R
DMNS CITY PARK   N/A     71  53  51 E8        30.24R
AURORA         PTCLDY    67  55  64 SE9       30.26R
FRONT RANGE AP PTCLDY    68  55  64 SE8       30.26R
ERIE MUNI ARPT FAIR      72  53  51 E5        30.23S
BOULDER MUN AP CLOUDY    70  54  56 CALM      30.24R
CENTENNIAL     FAIR      68  53  58 E7        30.26R
BROOMFIELD     PTCLDY    72  54  53 N7        30.26R
FORT COLLINS   FAIR      70  52  52 SE5       30.21R
LONGMONT       FAIR      72  56  55 NE3       30.25R
$$

COZ041-046-047-076>085-087-088-010300-
...PIKES PEAK/PALMER DIVIDE AND SOUTHERN FOOTHILLS...

CITY           SKY/WX    TMP DP  RH WIND       PRES   REMARKS
COLO. SPRINGS  MOCLDY    64  55  72 E9        30.32R
A. F. ACADEMY  FAIR      63  54  71 S10       30.32R
SCHRIEVER AFB  NOT AVBL
ELLICOTT       FAIR     N/A N/A N/A SE14      30.30R
FALCON         FAIR      58  56  92 SE5       30.37R
FORT CARSON    MOCLDY    64  56  73 SE5       30.29R
LIMON          FAIR      59  56  89 SE8       30.29R
MONUMENT HILL  FAIR      57  52  82 S12       30.36R
TRINIDAD       FAIR      70  51  51 CALM      30.25R
$$

COZ042>045-048>051-090-091-010300-
...NORTHEAST COLORADO...

CITY           SKY/WX    TMP DP  RH WIND       PRES   REMARKS
GREELEY ARPT   FAIR      70  57  64 SE10      30.23R
AKRON          FAIR      64  58  80 SE13      30.25R
BURLINGTON     MOCLDY    63  60  90 SE12      30.25R
WRAY           FAIR      68  61  77 E7        30.22R
STERLING       FAIR      68  61  77 SE8       30.21R
HOLYOKE        FAIR      66  61  82 SE6       30.23S
FORT MORGAN    FAIR      66  58  76 SE8       30.24R
$$

COZ086-089-092>099-010300-
...SOUTHEAST COLORADO...

CITY           SKY/WX    TMP DP  RH WIND       PRES   REMARKS
PUEBLO         FAIR      73  57  57 E20G31    30.20R
LA JUNTA       FAIR      70  58  65 E21       30.20R
LAMAR          MOCLDY    68  58  70 E10       30.19R
SPRINGFIELD      N/A     66  61  84 SE6       30.23R
$$




USA.gov is the U.S. government's official web portal to all federal, state and local government web resources and services.